Home   Weather   Centennial   Past weeks

Flag for USA Past Weather in Centennial, Colorado, USA — Yesterday and Last 2 Weeks

Now
50 °F

Clear.


Feels Like: 50 °F
Forecast: 48 / 79 °F
Wind: No wind

Location: Centennial Airport

Current Time: Sep 27, 2016 at 2:57:41 AM

Latest Report: Sep 27, 2016 at 1:53 AM


Visibility: 10 mi

Pressure: 30.18 "Hg (24.34 "Hg at 1781m altitude)

Humidity: 48%

Dew Point: 31 °F

Location of CentennialLocation

Past Weather in Centennial — Graph

°F

Centennial Temperature Yesterday

Maximum temperature yesterday: 76 °F (at 3:53 PM)
Minimum temperature yesterday: 42 °F (at 6:53 AM)
Average temperature yesterday: 59 °F

High & Low Weather Summary for the Past Weeks

 TemperatureHumidityPressure
High87 °F (Sep 19, 4:53 PM)86% (Sep 12, 9:53 PM)30.42 "Hg (Sep 12, 9:53 PM)
Low42 °F (Sep 25, 5:53 AM)10% (Sep 19, 4:53 PM)29.49 "Hg (Sep 23, 4:53 PM)
Average63 °F42%30.00 "Hg
* Reported Sep 12 1:53 AM — Sep 27 1:53 AM, Centennial, Weather by CustomWeather, © 2016

Note: Actual official high and low records may vary slightly from our data, if they occured in-between our weather recording intervals... More about our weather records

Advertising

Centennial Weather History for the Previous 24 Hours

Scroll right to see more
 ConditionsComfort  
Time TempWeatherWind HumidityBarometerVisibility
1:53 AM
Tue, Sep 27
50 °FClear.No wind48%30.18 "Hg10 mi
12:53 AM50 °FClear.No wind46%30.20 "Hg10 mi
11:53 PM
Mon, Sep 26
52 °FClear.5 mph43%30.20 "Hg10 mi
10:53 PM59 °FPassing clouds.10 mph35%30.19 "Hg10 mi
9:53 PM60 °FPassing clouds.12 mph33%30.21 "Hg10 mi
8:53 PM57 °FPassing clouds.7 mph36%30.24 "Hg10 mi
7:53 PM62 °FPassing clouds.7 mph30%30.25 "Hg10 mi
6:53 PM68 °FPassing clouds.7 mph23%30.23 "Hg10 mi
5:53 PM72 °FPassing clouds.8 mph19%30.20 "Hg10 mi
4:53 PM74 °FPassing clouds.5 mph18%30.19 "Hg10 mi
3:53 PM76 °FPassing clouds.9 mph17%30.19 "Hg10 mi
2:53 PM75 °FPassing clouds.7 mph18%30.20 "Hg10 mi
1:53 PM74 °FSunny.8 mph19%30.22 "Hg10 mi
12:53 PM70 °FSunny.6 mph20%30.26 "Hg10 mi
11:53 AM68 °FSunny.5 mph22%30.30 "Hg10 mi
10:53 AM66 °FSunny.6 mph25%30.33 "Hg10 mi
9:53 AM63 °FSunny.3 mph29%30.35 "Hg10 mi
8:53 AM58 °FSunny.7 mph36%30.36 "Hg10 mi
7:53 AM48 °FSunny.5 mph52%30.38 "Hg10 mi
6:53 AM42 °FSunny.3 mph62%30.37 "Hg10 mi
5:53 AM44 °FClear.6 mph58%30.33 "Hg10 mi
4:53 AM44 °FClear.5 mph58%30.34 "Hg10 mi
3:53 AM45 °FClear.3 mph56%30.34 "Hg10 mi
2:53 AM46 °FClear.9 mph54%30.35 "Hg10 mi
Weather by CustomWeather, © 2016

See weather overviewHow to use our weather pages